Location: Ch�ze
(42.9000°N, 0.0333°W)
Time: 23:55:07
(UTC+00:00)

CZ-2D R/B - Pass Details

Date: 24 January 2021
Orbit: 520 x 538 km, 97.4° (Epoch: 24 February)

Event Time Altitude Azimuth Distance (km) Brightness Sun altitude
Rises 17:41:34 0° 147° (SSE) 2,669 6.7 -7.4°
Reaches altitude 10° 17:43:46 10° 139° (SE) 1,781 5.7 -7.8°
Maximum altitude 17:47:19 37° 72° (ENE) 847 3.8 -8.4°
Drops below altitude 10° 17:50:52 10° 5° (N) 1,785 5.7 -9.0°
Sets 17:53:05 0° 357° (N) 2,676 6.7 -9.4°
